{"data":{"norad_id":56505,"epoch":"2026-05-24T23:31:24.797568Z","epoch_age_seconds":70773,"freshness":"FRESH","line1":"1 56505U 23065C   26144.98014812  .00000868  00000+0  41064-4 0  9997","line2":"2 56505  43.0048 141.9534 0001778 282.7217  77.3436 15.27578798168263","mean_motion":15.27578798,"eccentricity":0.0001778,"inclination_deg":43.0048,"raan_deg":141.9534,"arg_perigee_deg":282.7217,"mean_anomaly_deg":77.3436,"bstar":4.1064e-5,"rev_number":16826,"period_min":94.266822888962,"perigee_km":481.83277573461,"apogee_km":484.27261479025,"semimajor_km":6861.1896952624,"source":"CELESTRAK","updated_at":"2026-05-25T13:38:18.077685Z"}}